Regional Weather Roundup
Issued by NWS

Home | Current Version | Previous Version | Text Only | Print | Product List | Glossary On
Versions: 1 2 3 4 5 6 7 8 9 10 11 12 13 14 15 16 17 18 19 20 21 22 23 24 25 26 27 28 29 30 31 32 33 34 35 36 37 38 39 40 41 42 43 44 45 46 47 48 49 50
975
ASUS43 KMPX 240501
RWRMN
WEATHER ROUNDUP FOR MINNESOTA
NATIONAL WEATHER SERVICE TWIN CITIES/CHANHASSEN MN
1200 AM CDT TUE APR 24 2018


NOTE: "FAIR" INDICATES FEW OR NO CLOUDS BELOW 12,000 FEET WITH NO
SIGNIFICANT WEATHER AND/OR OBSTRUCTIONS TO VISIBILITY. N/A MEANS
CURRENT SKY AND/OR WEATHER CONDITIONS ARE NOT AVAILABLE.

MNZ060>063-068>070-240600-
   Twin Cities Metro

CITY           SKY/WX    TMP DP  RH WIND       PRES   REMARKS
TWIN CITIES    FAIR      55  40  56 NW5       30.13S
ST PAUL        FAIR      51  39  63 CALM      30.13S
CRYSTAL        FAIR      50  38  63 CALM      30.12F
BLAINE         FAIR      48  37  66 CALM      30.13S
LAKEVILLE      FAIR      45  39  81 W3        30.13S
EDEN PRAIRIE   FAIR      49  38  65 NE8       30.13R
SOUTH ST PAUL  FAIR      50  37  62 CALM      30.13S
LAKE ELMO      FAIR      43  36  75 CALM      30.14S
$$
MNZ001>005-007-008-013>017-022>024-027-028-240600-
   Northwest Minnesota

CITY           SKY/WX    TMP DP  RH WIND       PRES   REMARKS
BEMIDJI        FAIR      44  30  58 CALM      30.17S
HALLOCK        FAIR      46  34  61 N13       30.23R
ROSEAU         FAIR      48  36  61 NW7       30.20S
WARROAD        MOCLDY    46  34  61 NW5       30.20S
THIEF RVR FALL MOCLDY    48  36  63 NW9       30.20F
CROOKSTON      FAIR      46  39  76 N10       30.22R
FOSSTON        FAIR      45  34  65 N3        30.19S
DETROIT LAKES  FAIR      46  34  61 N5        30.19S
MOORHEAD       CLOUDY    48  39  71 CALM      30.20S
PARK RAPIDS    FAIR      45  33  63 S3        30.17R
MAHNOMEN       FAIR      45  35  69 N7        30.18S
$$
MNZ006-009>011-018-025>026-240600-
   North Central Minnesota

CITY           SKY/WX    TMP DP  RH WIND       PRES   REMARKS
BAUDETTE       FAIR      42  30  62 NW6       30.18R
FLAG ISLAND    CLOUDY    43  28  56 NW9       30.19R
INTL FALLS     FAIR      35  30  82 CALM      30.16R
WASKISH        FAIR      39  30  70 CALM      30.18S
BIG FORK       FAIR      37  27  65 CALM      30.17R
LONGVILLE      FAIR      46  30  53 CALM      30.16S
GRAND RAPIDS   FAIR      48  28  46 NW5       30.17R
CRANE LAKE     FAIR      28  25  86 CALM      30.18R
ORR            FAIR      36  27  69 CALM      30.14R
COOK           FAIR      36  27  69 CALM      30.16S
WALKER         FAIR      47  30  51 NW3       30.17S
$$
MNZ012-019>021-037-240600-
   Northeast Minnesota

CITY           SKY/WX    TMP DP  RH WIND       PRES   REMARKS
DULUTH         FAIR      51  31  46 NW6       30.13R
ELY            FAIR      34  27  75 CALM      30.15R
HIBBING        FAIR      40  27  59 N5        30.14R
EVELETH        FAIR      46  28  50 CALM      30.15S
DULUTH HARBOR  FAIR      52  39  62 W3        30.12R
TWO HARBORS    FAIR      54  34  47 NW5       30.09S
SILVER BAY     FAIR      37  28  70 CALM      30.10R
GRAND MARAIS     N/A     53  29  39 N13G23    30.08F
G MARAIS ARPRT FAIR      41  25  52 N9        30.12S
$$
MNZ029>031-032-039>041-046>048-054>057-064-240600-
   West Central Minnesota

CITY           SKY/WX    TMP DP  RH WIND       PRES   REMARKS
FERGUS FALLS   CLOUDY    54  37  54 NE5       30.14S
WHEATON        CLOUDY    54  43  66 N3        30.18S
MORRIS         CLOUDY    54  43  66 CALM      30.15S
ALEXANDRIA     FAIR      53  39  59 N8        30.17R
ELBOW LAKE     CLOUDY    51  37  57 NE7       30.16S
WADENA         MOCLDY    48  36  61 N8        30.17R
GLENWOOD       FAIR      52  41  66 N9        30.16S
APPLETON       PTCLDY    48  45  87 CALM      30.15S
BENSON         PTCLDY    45  41  87 CALM      30.16S
ORTONVILLE     MOCLDY    52  43  71 CALM      30.15S
MADISON        CLOUDY    52  46  82 W3        30.15S
WILLMAR        FAIR      45  43  93 CALM      30.17S
$$
MNZ033>034-036-042>043-049>051-058-059-240600-
   Central Minnesota

CITY           SKY/WX    TMP DP  RH WIND       PRES   REMARKS
ST CLOUD       FAIR      44  38  79 CALM      30.13S
SAUK CENTRE    FAIR      46  39  78 CALM      30.16R
PAYNESVILLE    FAIR      42  38  87 W3        30.15S
AITKIN         FAIR      36  32  87 CALM      30.14R
PINE RIVER     FAIR      43  30  61 NW3       30.19S
BRAINERD       FAIR      51  32  48 N9        30.15R
STAPLES        FAIR      46  34  61 N7        30.16S
LONG PRAIRIE   FAIR      48  37  66 NW6       30.16R
LITTLE FALLS   FAIR      45  32  61 CALM      30.15R
LITCHFIELD     FAIR      46  43  87 CALM      30.15S
BUFFALO        FAIR      45  40  80 CALM      30.15S
MAPLE LAKE     FAIR      44  41  89 CALM      30.15S
HUTCHINSON     FAIR      45  43  91 CALM      30.16R
$$
MNZ037-044-045-052-053-240600-
   East Central Minnesota

CITY           SKY/WX    TMP DP  RH WIND       PRES   REMARKS
PRINCETON      FAIR      43  39  87 CALM      30.14R
MORA           FAIR      37  34  87 CALM      30.15S
CAMBRIDGE      FAIR      45  34  65 CALM      30.14R
RUSH CITY      FAIR      43  39  85 CALM      30.13S
MOOSE LAKE     FAIR      39  34  81 NE5       30.12R
HINCKLEY       FAIR      37  34  87 CALM      30.13S
CLOQUET        FAIR      41  30  65 W6        30.13S
MCGREGOR       FAIR      41  34  75 CALM      30.15R
$$
MNZ071>073-080-081-089-090-097-098-240600-
   Southwest Minnesota

CITY           SKY/WX    TMP DP  RH WIND       PRES   REMARKS
MONTEVIDEO     CLOUDY    52  37  58 CALM      30.15S
GRANITE FALLS  CLOUDY    48  44  85 SW5       30.16S
CANBY          CLOUDY    44  40  85 CALM      30.16S
MARSHALL       PTCLDY    45  40  82 CALM      30.15S
REDWOOD FALLS  PTCLDY    51  43  74 SW3       30.14S
OLIVIA         PTCLDY    50  43  76 CALM      30.14S
PIPESTONE      PTCLDY   N/A N/A N/A SE6       30.15F
WINDOM         CLOUDY    46  30  53 CALM      30.16S
WORTHINGTON    PTCLDY    48  40  73 CALM      30.16S
JACKSON        CLOUDY    43  37  81 CALM      30.16S
TRACY          CLOUDY    48  39  71 SW6       30.15S
SLAYTON        CLOUDY    47  41  78 CALM      30.16S
$$
MNZ065>067-074>077-082>085-091>093-240600-
   South Central Minnesota

CITY           SKY/WX    TMP DP  RH WIND       PRES   REMARKS
MANKATO        FAIR      53  41  63 N3        30.15R
NEW ULM        CLOUDY    48  43  81 W6        30.15R
ST JAMES       CLEAR     48  41  76 W5        30.16S
FAIRMONT       CLEAR     47  39  74 NW5       30.15S
GLENCOE        FAIR      49  46  92 CALM      30.13S
OWATONNA       FAIR      46  39  76 CALM      30.14S
WASECA         FAIR      46  37  71 NW3       30.16R
ALBERT LEA     FAIR      46  39  76 CALM      30.14S
$$
MNZ078>079-086>088-094>096-240600-
   Southeast Minnesota

CITY           SKY/WX    TMP DP  RH WIND       PRES   REMARKS
ROCHESTER      FAIR      56  33  42 CALM      30.14R
RED WING       FAIR      45  32  61 W3        30.12S
STANTON        FAIR      44  40  85 S6        30.13R
DODGE CENTER   FAIR      48  37  66 CALM      30.13S
WINONA         FAIR      46  41  81 CALM      30.11S
AUSTIN         FAIR      45  39  81 CALM      30.13R
PRESTON        FAIR      54  33  45 N3        30.13S
$$
ABBREVIATIONS USED IN REMARKS
   TC - TEMPERATURES IN CELSIUS
  WCI - WIND CHILL INDEX
   HX - HEAT INDEX
  VSB - VISIBILITY
$$




USA.gov is the U.S. government's official web portal to all federal, state and local government web resources and services.